Time,TemperatureF,DewpointF,PressureIn,WindDirection,WindDirectionDegrees,WindSpeedMPH,WindSpeedGustMPH,Humidity,HourlyPrecipIn,Conditions,Clouds,dailyrainin,SoftwareType,DateUTC
2013-02-09 00:00:00,27.7,22.9,30.40,NW,305,0.0,1.0,82,0.00,,,0.01,WUHU216DAVISVP2,2013-02-09 05:00:00,
2013-02-09 00:05:00,27.6,22.8,30.40,NW,307,0.0,1.0,82,0.00,,,0.00,WUHU216DAVISVP2,2013-02-09 05:05:00,
2013-02-09 00:10:00,27.7,22.9,30.40,West,262,0.0,2.0,82,0.00,,,0.00,WUHU216DAVISVP2,2013-02-09 05:10:00,
2013-02-09 00:15:00,27.9,23.1,30.40,NW,325,0.0,2.0,82,0.00,,,0.00,WUHU216DAVISVP2,2013-02-09 05:15:00,
2013-02-09 00:20:00,27.9,23.1,30.40,NNW,329,0.0,2.0,82,0.00,,,0.00,WUHU216DAVISVP2,2013-02-09 05:20:00,
2013-02-09 00:25:00,27.8,23.0,30.40,WNW,295,0.0,2.0,82,0.00,,,0.00,WUHU216DAVISVP2,2013-02-09 05:25:00,
2013-02-09 00:30:00,27.6,22.8,30.40,West,277,0.0,1.0,82,0.00,,,0.00,WUHU216DAVISVP2,2013-02-09 05:30:00,
2013-02-09 00:35:00,27.3,22.8,30.40,WNW,283,0.0,1.0,83,0.00,,,0.00,WUHU216DAVISVP2,2013-02-09 05:35:00,
2013-02-09 00:40:00,27.2,22.7,30.40,WNW,300,0.0,1.0,83,0.00,,,0.00,WUHU216DAVISVP2,2013-02-09 05:40:00,
2013-02-09 00:45:00,27.1,22.6,30.40,NW,304,0.0,1.0,83,0.00,,,0.00,WUHU216DAVISVP2,2013-02-09 05:45:00,
2013-02-09 00:50:00,27.0,22.5,30.40,NW,311,0.0,1.0,83,0.00,,,0.00,WUHU216DAVISVP2,2013-02-09 05:50:00,
2013-02-09 00:55:00,27.0,22.8,30.40,NNW,332,0.0,1.0,84,0.00,,,0.00,WUHU216DAVISVP2,2013-02-09 05:55:00,
2013-02-09 01:00:00,27.0,22.8,30.39,North,353,0.0,1.0,84,0.00,,,0.00,WUHU216DAVISVP2,2013-02-09 06:00:00,
2013-02-09 01:05:00,26.9,22.4,30.40,North,353,0.0,0.0,83,0.00,,,0.00,WUHU216DAVISVP2,2013-02-09 06:05:00,
2013-02-09 01:10:00,26.6,22.1,30.40,North,353,0.0,0.0,83,0.00,,,0.00,WUHU216DAVISVP2,2013-02-09 06:10:00,
2013-02-09 01:15:00,26.5,22.3,30.40,North,352,0.0,0.0,84,0.00,,,0.00,WUHU216DAVISVP2,2013-02-09 06:15:00,
2013-02-09 01:20:00,26.3,22.4,30.40,North,352,0.0,0.0,85,0.00,,,0.00,WUHU216DAVISVP2,2013-02-09 06:20:00,
2013-02-09 01:25:00,26.1,22.5,30.39,North,352,0.0,0.0,86,0.00,,,0.00,WUHU216DAVISVP2,2013-02-09 06:25:00,
2013-02-09 01:30:00,25.7,22.1,30.40,North,353,0.0,0.0,86,0.00,,,0.00,WUHU216DAVISVP2,2013-02-09 06:30:00,
2013-02-09 01:35:00,25.4,22.0,30.40,North,352,0.0,0.0,87,0.00,,,0.00,WUHU216DAVISVP2,2013-02-09 06:35:00,
2013-02-09 01:40:00,25.2,21.8,30.40,North,349,0.0,0.0,87,0.00,,,0.00,WUHU216DAVISVP2,2013-02-09 06:40:00,
2013-02-09 01:45:00,25.1,21.7,30.40,North,349,0.0,0.0,87,0.00,,,0.00,WUHU216DAVISVP2,2013-02-09 06:45:00,
2013-02-09 01:50:00,25.1,22.0,30.41,NNW,330,0.0,0.0,88,0.00,,,0.00,WUHU216DAVISVP2,2013-02-09 06:50:00,
2013-02-09 01:55:00,24.7,21.1,30.41,SW,232,0.0,0.0,86,0.00,,,0.00,WUHU216DAVISVP2,2013-02-09 06:55:00,
2013-02-09 02:00:00,24.3,21.2,30.41,SW,232,0.0,0.0,88,0.00,,,0.00,WUHU216DAVISVP2,2013-02-09 07:00:00,
2013-02-09 02:05:00,24.0,20.9,30.41,SW,235,0.0,0.0,88,0.00,,,0.00,WUHU216DAVISVP2,2013-02-09 07:05:00,
2013-02-09 02:10:00,23.9,21.1,30.41,WSW,238,0.0,0.0,89,0.00,,,0.00,WUHU216DAVISVP2,2013-02-09 07:10:00,
2013-02-09 02:15:00,24.0,21.2,30.41,WSW,238,0.0,0.0,89,0.00,,,0.00,WUHU216DAVISVP2,2013-02-09 07:15:00,
2013-02-09 02:20:00,24.2,21.4,30.41,WSW,238,0.0,0.0,89,0.00,,,0.00,WUHU216DAVISVP2,2013-02-09 07:20:00,
2013-02-09 02:25:00,24.3,21.5,30.41,WSW,252,0.0,0.0,89,0.00,,,0.00,WUHU216DAVISVP2,2013-02-09 07:25:00,
2013-02-09 02:30:00,24.4,21.6,30.42,WSW,248,0.0,0.0,89,0.00,,,0.00,WUHU216DAVISVP2,2013-02-09 07:30:00,
2013-02-09 02:35:00,24.1,21.3,30.41,WSW,243,0.0,0.0,89,0.00,,,0.00,WUHU216DAVISVP2,2013-02-09 07:35:00,
2013-02-09 02:40:00,24.2,21.4,30.42,WSW,243,0.0,0.0,89,0.00,,,0.00,WUHU216DAVISVP2,2013-02-09 07:40:00,
2013-02-09 02:45:00,24.3,21.5,30.42,WSW,248,0.0,0.0,89,0.00,,,0.00,WUHU216DAVISVP2,2013-02-09 07:45:00,
2013-02-09 02:50:00,24.3,21.5,30.42,WSW,248,0.0,0.0,89,0.00,,,0.00,WUHU216DAVISVP2,2013-02-09 07:50:00,
2013-02-09 02:55:00,24.1,21.3,30.42,WSW,248,0.0,0.0,89,0.00,,,0.00,WUHU216DAVISVP2,2013-02-09 07:55:00,
2013-02-09 03:00:00,23.9,21.1,30.42,WSW,248,0.0,0.0,89,0.00,,,0.00,WUHU216DAVISVP2,2013-02-09 08:00:00,
2013-02-09 03:05:00,23.5,20.7,30.41,WSW,248,0.0,0.0,89,0.00,,,0.00,WUHU216DAVISVP2,2013-02-09 08:05:00,
2013-02-09 03:10:00,23.2,20.4,30.41,WSW,248,0.0,0.0,89,0.00,,,0.00,WUHU216DAVISVP2,2013-02-09 08:10:00,
2013-02-09 03:15:00,23.0,20.2,30.41,East,84,0.0,0.0,89,0.00,,,0.00,WUHU216DAVISVP2,2013-02-09 08:15:00,
2013-02-09 03:20:00,23.0,20.5,30.41,East,83,0.0,0.0,90,0.00,,,0.00,WUHU216DAVISVP2,2013-02-09 08:20:00,
2013-02-09 03:25:00,23.0,20.5,30.41,East,84,0.0,0.0,90,0.00,,,0.00,WUHU216DAVISVP2,2013-02-09 08:25:00,
2013-02-09 03:30:00,23.1,20.6,30.41,East,84,0.0,0.0,90,0.00,,,0.00,WUHU216DAVISVP2,2013-02-09 08:30:00,
2013-02-09 03:35:00,23.1,20.6,30.41,East,84,0.0,0.0,90,0.00,,,0.00,WUHU216DAVISVP2,2013-02-09 08:35:00,
2013-02-09 03:40:00,23.3,21.0,30.41,East,82,0.0,0.0,91,0.00,,,0.00,WUHU216DAVISVP2,2013-02-09 08:40:00,
2013-02-09 03:45:00,23.6,21.3,30.40,ENE,61,0.0,0.0,91,0.00,,,0.00,WUHU216DAVISVP2,2013-02-09 08:45:00,
2013-02-09 03:50:00,23.8,21.5,30.40,NNE,30,0.0,0.0,91,0.00,,,0.00,WUHU216DAVISVP2,2013-02-09 08:50:00,
2013-02-09 03:55:00,23.8,21.5,30.40,NNE,30,0.0,0.0,91,0.00,,,0.00,WUHU216DAVISVP2,2013-02-09 08:55:00,
2013-02-09 04:00:00,23.6,21.0,30.40,NNE,30,0.0,0.0,90,0.00,,,0.00,WUHU216DAVISVP2,2013-02-09 09:00:00,
2013-02-09 04:05:00,23.5,21.0,30.41,NNE,30,0.0,0.0,90,0.00,,,0.00,WUHU216DAVISVP2,2013-02-09 09:05:00,
2013-02-09 04:10:00,23.4,21.1,30.40,NNE,30,0.0,0.0,91,0.00,,,0.00,WUHU216DAVISVP2,2013-02-09 09:10:00,
2013-02-09 04:15:00,23.4,21.1,30.41,NE,41,0.0,0.0,91,0.00,,,0.00,WUHU216DAVISVP2,2013-02-09 09:15:00,
2013-02-09 04:20:00,23.2,20.9,30.41,NE,41,0.0,0.0,91,0.00,,,0.00,WUHU216DAVISVP2,2013-02-09 09:20:00,
2013-02-09 04:25:00,22.8,20.5,30.41,NE,41,0.0,0.0,91,0.00,,,0.00,WUHU216DAVISVP2,2013-02-09 09:25:00,
2013-02-09 04:30:00,22.5,20.2,30.42,NE,41,0.0,0.0,91,0.00,,,0.00,WUHU216DAVISVP2,2013-02-09 09:30:00,
2013-02-09 04:35:00,22.7,20.7,30.42,NE,41,0.0,0.0,92,0.00,,,0.00,WUHU216DAVISVP2,2013-02-09 09:35:00,
2013-02-09 04:40:00,22.6,20.8,30.42,NE,41,0.0,0.0,93,0.00,,,0.00,WUHU216DAVISVP2,2013-02-09 09:40:00,
2013-02-09 04:45:00,22.5,20.7,30.42,NE,41,0.0,0.0,93,0.00,,,0.00,WUHU216DAVISVP2,2013-02-09 09:45:00,
2013-02-09 04:50:00,22.4,20.6,30.42,NE,41,0.0,0.0,93,0.00,,,0.00,WUHU216DAVISVP2,2013-02-09 09:50:00,
2013-02-09 04:55:00,22.4,20.6,30.42,NE,41,0.0,0.0,93,0.00,,,0.00,WUHU216DAVISVP2,2013-02-09 09:55:00,
2013-02-09 05:00:00,22.2,20.4,30.42,NE,41,0.0,0.0,93,0.00,,,0.00,WUHU216DAVISVP2,2013-02-09 10:00:00,
2013-02-09 05:05:00,22.1,20.3,30.42,NE,41,0.0,0.0,93,0.00,,,0.00,WUHU216DAVISVP2,2013-02-09 10:05:00,
2013-02-09 05:10:00,21.9,20.1,30.42,NE,41,0.0,0.0,93,0.00,,,0.00,WUHU216DAVISVP2,2013-02-09 10:10:00,
2013-02-09 05:15:00,21.9,20.1,30.43,NE,41,0.0,0.0,93,0.00,,,0.00,WUHU216DAVISVP2,2013-02-09 10:15:00,
2013-02-09 05:20:00,21.9,20.1,30.42,NE,40,0.0,0.0,93,0.00,,,0.00,WUHU216DAVISVP2,2013-02-09 10:20:00,
2013-02-09 05:25:00,21.9,20.1,30.43,NE,40,0.0,0.0,93,0.00,,,0.00,WUHU216DAVISVP2,2013-02-09 10:25:00,
2013-02-09 05:30:00,21.6,19.8,30.43,NE,40,0.0,0.0,93,0.00,,,0.00,WUHU216DAVISVP2,2013-02-09 10:30:00,
2013-02-09 05:35:00,21.4,19.7,30.42,NE,40,0.0,0.0,93,0.00,,,0.00,WUHU216DAVISVP2,2013-02-09 10:35:00,
2013-02-09 05:40:00,21.5,19.8,30.42,NE,40,0.0,0.0,93,0.00,,,0.00,WUHU216DAVISVP2,2013-02-09 10:40:00,
2013-02-09 05:45:00,21.7,20.0,30.42,NE,40,0.0,0.0,93,0.00,,,0.00,WUHU216DAVISVP2,2013-02-09 10:45:00,
2013-02-09 05:50:00,21.7,20.0,30.42,NE,40,0.0,0.0,93,0.00,,,0.00,WUHU216DAVISVP2,2013-02-09 10:50:00,
2013-02-09 05:55:00,21.7,20.2,30.43,NE,40,0.0,0.0,94,0.00,,,0.00,WUHU216DAVISVP2,2013-02-09 10:55:00,
2013-02-09 06:00:00,21.6,19.9,30.43,NE,40,0.0,0.0,93,0.00,,,0.00,WUHU216DAVISVP2,2013-02-09 11:00:00,
2013-02-09 06:05:00,21.6,19.9,30.43,NE,40,0.0,0.0,93,0.00,,,0.00,WUHU216DAVISVP2,2013-02-09 11:05:00,
2013-02-09 06:10:00,21.5,19.8,30.42,NE,40,0.0,0.0,93,0.00,,,0.00,WUHU216DAVISVP2,2013-02-09 11:10:00,
2013-02-09 06:15:00,21.6,20.1,30.42,ENE,60,0.0,0.0,94,0.00,,,0.00,WUHU216DAVISVP2,2013-02-09 11:15:00,
2013-02-09 06:20:00,21.7,20.2,30.43,ENE,60,0.0,0.0,94,0.00,,,0.00,WUHU216DAVISVP2,2013-02-09 11:20:00,
2013-02-09 06:25:00,21.6,20.1,30.43,ENE,60,0.0,0.0,94,0.00,,,0.00,WUHU216DAVISVP2,2013-02-09 11:25:00,
2013-02-09 06:30:00,21.6,20.1,30.43,ENE,74,0.0,0.0,94,0.00,,,0.00,WUHU216DAVISVP2,2013-02-09 11:30:00,
2013-02-09 06:35:00,21.5,20.0,30.42,ENE,71,0.0,0.0,94,0.00,,,0.00,WUHU216DAVISVP2,2013-02-09 11:35:00,
2013-02-09 06:40:00,21.6,20.1,30.43,ENE,70,0.0,0.0,94,0.00,,,0.00,WUHU216DAVISVP2,2013-02-09 11:40:00,
2013-02-09 06:45:00,21.7,20.2,30.43,ENE,78,0.0,0.0,94,0.00,,,0.00,WUHU216DAVISVP2,2013-02-09 11:45:00,
2013-02-09 06:50:00,21.7,20.2,30.42,ENE,78,0.0,1.0,94,0.00,,,0.00,WUHU216DAVISVP2,2013-02-09 11:50:00,
2013-02-09 06:55:00,21.8,20.3,30.43,East,91,0.0,1.0,94,0.00,,,0.00,WUHU216DAVISVP2,2013-02-09 11:55:00,
2013-02-09 07:00:00,21.9,20.4,30.43,ENE,77,1.0,2.0,94,0.00,,,0.00,WUHU216DAVISVP2,2013-02-09 12:00:00,
2013-02-09 07:05:00,22.2,20.7,30.43,ESE,103,1.0,7.0,94,0.00,,,0.00,WUHU216DAVISVP2,2013-02-09 12:05:00,
2013-02-09 07:10:00,22.4,20.9,30.43,East,98,2.0,7.0,94,0.00,,,0.00,WUHU216DAVISVP2,2013-02-09 12:10:00,
2013-02-09 07:15:00,22.4,20.9,30.43,ESE,105,4.0,6.0,94,0.00,,,0.00,WUHU216DAVISVP2,2013-02-09 12:15:00,
2013-02-09 07:20:00,22.4,20.6,30.43,ESE,105,1.0,6.0,93,0.00,,,0.00,WUHU216DAVISVP2,2013-02-09 12:20:00,
2013-02-09 07:25:00,22.3,20.3,30.44,ESE,115,0.0,6.0,92,0.00,,,0.00,WUHU216DAVISVP2,2013-02-09 12:25:00,
2013-02-09 07:30:00,22.3,20.3,30.45,ESE,109,2.0,5.0,92,0.00,,,0.00,WUHU216DAVISVP2,2013-02-09 12:30:00,
2013-02-09 07:35:00,22.2,20.2,30.45,ESE,117,0.0,5.0,92,0.00,,,0.00,WUHU216DAVISVP2,2013-02-09 12:35:00,
2013-02-09 07:40:00,22.1,19.8,30.45,ESE,123,0.0,4.0,91,0.00,,,0.00,WUHU216DAVISVP2,2013-02-09 12:40:00,
2013-02-09 07:45:00,22.1,19.8,30.45,ESE,110,0.0,4.0,91,0.00,,,0.00,WUHU216DAVISVP2,2013-02-09 12:45:00,
2013-02-09 07:50:00,22.0,19.5,30.46,ESE,105,0.0,4.0,90,0.00,,,0.00,WUHU216DAVISVP2,2013-02-09 12:50:00,
2013-02-09 07:55:00,21.9,19.4,30.45,East,91,0.0,4.0,90,0.00,,,0.00,WUHU216DAVISVP2,2013-02-09 12:55:00,
2013-02-09 08:00:00,22.1,19.6,30.45,ESE,110,0.0,2.0,90,0.00,,,0.00,WUHU216DAVISVP2,2013-02-09 13:00:00,
2013-02-09 08:05:00,22.4,19.9,30.46,SE,129,0.0,5.0,90,0.00,,,0.00,WUHU216DAVISVP2,2013-02-09 13:05:00,
2013-02-09 08:10:00,22.6,20.1,30.46,East,99,4.0,6.0,90,0.00,,,0.00,WUHU216DAVISVP2,2013-02-09 13:10:00,
2013-02-09 08:15:00,22.8,20.0,30.45,ESE,113,5.0,7.0,89,0.00,,,0.00,WUHU216DAVISVP2,2013-02-09 13:15:00,
2013-02-09 08:20:00,23.0,20.2,30.45,East,99,4.0,7.0,89,0.00,,,0.00,WUHU216DAVISVP2,2013-02-09 13:20:00,
2013-02-09 08:25:00,23.1,20.3,30.45,East,94,5.0,7.0,89,0.00,,,0.00,WUHU216DAVISVP2,2013-02-09 13:25:00,
2013-02-09 08:30:00,23.2,20.4,30.45,East,96,4.0,7.0,89,0.00,,,0.00,WUHU216DAVISVP2,2013-02-09 13:30:00,
2013-02-09 08:35:00,23.4,20.6,30.46,East,87,6.0,7.0,89,0.00,,,0.00,WUHU216DAVISVP2,2013-02-09 13:35:00,
2013-02-09 08:40:00,23.4,20.3,30.46,East,94,3.0,7.0,88,0.00,,,0.00,WUHU216DAVISVP2,2013-02-09 13:40:00,
2013-02-09 08:45:00,23.6,20.5,30.46,East,101,2.0,7.0,88,0.00,,,0.00,WUHU216DAVISVP2,2013-02-09 13:45:00,
2013-02-09 08:50:00,23.9,20.8,30.46,ESE,107,6.0,8.0,88,0.00,,,0.00,WUHU216DAVISVP2,2013-02-09 13:50:00,
2013-02-09 08:55:00,24.1,21.0,30.46,ESE,117,7.0,9.0,88,0.00,,,0.00,WUHU216DAVISVP2,2013-02-09 13:55:00,
2013-02-09 09:00:00,24.2,20.9,30.46,East,101,9.0,11.0,87,0.00,,,0.00,WUHU216DAVISVP2,2013-02-09 14:00:00,
2013-02-09 09:05:00,24.3,20.7,30.46,ESE,111,4.0,12.0,86,0.00,,,0.00,WUHU216DAVISVP2,2013-02-09 14:05:00,
2013-02-09 09:10:00,24.6,21.0,30.46,ESE,107,9.0,13.0,86,0.00,,,0.00,WUHU216DAVISVP2,2013-02-09 14:10:00,
2013-02-09 09:15:00,24.9,21.5,30.46,ESE,119,7.0,13.0,87,0.00,,,0.00,WUHU216DAVISVP2,2013-02-09 14:15:00,
2013-02-09 09:20:00,25.0,21.4,30.45,East,101,9.0,13.0,86,0.00,,,0.00,WUHU216DAVISVP2,2013-02-09 14:20:00,
2013-02-09 09:25:00,25.0,21.1,30.45,ESE,110,11.0,14.0,85,0.00,,,0.00,WUHU216DAVISVP2,2013-02-09 14:25:00,
2013-02-09 09:30:00,25.0,21.1,30.45,SE,129,4.0,14.0,85,0.00,,,0.00,WUHU216DAVISVP2,2013-02-09 14:30:00,
2013-02-09 09:35:00,25.1,21.2,30.45,ESE,122,9.0,13.0,85,0.00,,,0.00,WUHU216DAVISVP2,2013-02-09 14:35:00,
2013-02-09 09:40:00,25.3,21.4,30.45,ESE,103,9.0,13.0,85,0.00,,,0.00,WUHU216DAVISVP2,2013-02-09 14:40:00,
2013-02-09 09:45:00,25.6,21.7,30.45,SE,126,6.0,12.0,85,0.00,,,0.00,WUHU216DAVISVP2,2013-02-09 14:45:00,
2013-02-09 09:50:00,26.1,22.2,30.45,ESE,103,9.0,11.0,85,0.00,,,0.00,WUHU216DAVISVP2,2013-02-09 14:50:00,
2013-02-09 09:55:00,26.2,22.0,30.45,SE,141,7.0,11.0,84,0.00,,,0.00,WUHU216DAVISVP2,2013-02-09 14:55:00,
2013-02-09 10:00:00,26.5,22.3,30.45,ESE,108,10.0,11.0,84,0.00,,,0.00,WUHU216DAVISVP2,2013-02-09 15:00:00,
2013-02-09 10:05:00,26.6,22.4,30.46,ESE,119,8.0,11.0,84,0.00,,,0.00,WUHU216DAVISVP2,2013-02-09 15:05:00,
2013-02-09 10:10:00,26.8,22.6,30.45,SE,132,6.0,11.0,84,0.00,,,0.00,WUHU216DAVISVP2,2013-02-09 15:10:00,
2013-02-09 10:15:00,27.0,22.8,30.45,ESE,115,6.0,11.0,84,0.00,,,0.00,WUHU216DAVISVP2,2013-02-09 15:15:00,
2013-02-09 10:20:00,27.2,23.0,30.45,ESE,103,10.0,12.0,84,0.00,,,0.00,WUHU216DAVISVP2,2013-02-09 15:20:00,
2013-02-09 10:25:00,27.3,23.1,30.45,ESE,115,9.0,13.0,84,0.00,,,0.00,WUHU216DAVISVP2,2013-02-09 15:25:00,
2013-02-09 10:30:00,27.3,22.8,30.44,East,101,9.0,13.0,83,0.00,,,0.00,WUHU216DAVISVP2,2013-02-09 15:30:00,
2013-02-09 10:35:00,27.3,22.8,30.44,ESE,123,7.0,12.0,83,0.00,,,0.00,WUHU216DAVISVP2,2013-02-09 15:35:00,
2013-02-09 10:40:00,27.7,23.5,30.44,SE,125,7.0,11.0,84,0.00,,,0.00,WUHU216DAVISVP2,2013-02-09 15:40:00,
2013-02-09 10:45:00,27.8,23.3,30.44,ESE,115,8.0,11.0,83,0.00,,,0.00,WUHU216DAVISVP2,2013-02-09 15:45:00,
2013-02-09 10:50:00,28.0,23.5,30.44,ESE,108,9.0,11.0,83,0.00,,,0.00,WUHU216DAVISVP2,2013-02-09 15:50:00,
2013-02-09 10:55:00,28.2,23.7,30.44,ESE,118,9.0,11.0,83,0.00,,,0.00,WUHU216DAVISVP2,2013-02-09 15:55:00,
2013-02-09 11:00:00,28.2,23.7,30.44,ESE,109,8.0,12.0,83,0.00,,,0.00,WUHU216DAVISVP2,2013-02-09 16:00:00,
2013-02-09 11:05:00,28.4,23.9,30.44,East,93,7.0,12.0,83,0.00,,,0.00,WUHU216DAVISVP2,2013-02-09 16:05:00,
2013-02-09 11:10:00,28.6,24.1,30.44,ESE,102,8.0,12.0,83,0.00,,,0.00,WUHU216DAVISVP2,2013-02-09 16:10:00,
2013-02-09 11:15:00,28.7,24.2,30.44,ESE,107,9.0,13.0,83,0.00,,,0.00,WUHU216DAVISVP2,2013-02-09 16:15:00,
2013-02-09 11:20:00,28.8,24.3,30.44,ESE,120,6.0,13.0,83,0.00,,,0.00,WUHU216DAVISVP2,2013-02-09 16:20:00,
2013-02-09 11:25:00,29.2,25.0,30.44,ESE,116,8.0,12.0,84,0.00,,,0.00,WUHU216DAVISVP2,2013-02-09 16:25:00,
2013-02-09 11:30:00,29.5,25.0,30.45,ESE,107,4.0,12.0,83,0.00,,,0.00,WUHU216DAVISVP2,2013-02-09 16:30:00,
2013-02-09 11:35:00,29.6,24.8,30.44,SE,126,5.0,11.0,82,0.00,,,0.00,WUHU216DAVISVP2,2013-02-09 16:35:00,
2013-02-09 11:40:00,29.6,24.8,30.44,ESE,102,6.0,13.0,82,0.00,,,0.00,WUHU216DAVISVP2,2013-02-09 16:40:00,
2013-02-09 11:45:00,29.7,24.9,30.45,SE,131,7.0,13.0,82,0.00,,,0.00,WUHU216DAVISVP2,2013-02-09 16:45:00,
2013-02-09 11:50:00,29.9,25.1,30.45,SE,145,7.0,12.0,82,0.00,,,0.00,WUHU216DAVISVP2,2013-02-09 16:50:00,
2013-02-09 11:55:00,29.8,24.7,30.45,SE,145,4.0,12.0,81,0.00,,,0.00,WUHU216DAVISVP2,2013-02-09 16:55:00,
2013-02-09 12:00:00,29.7,24.6,30.45,ESE,120,8.0,11.0,81,0.00,,,0.00,WUHU216DAVISVP2,2013-02-09 17:00:00,
2013-02-09 12:05:00,29.8,25.0,30.45,SE,128,6.0,10.0,82,0.00,,,0.00,WUHU216DAVISVP2,2013-02-09 17:05:00,
2013-02-09 12:10:00,30.0,24.9,30.44,East,88,6.0,11.0,81,0.00,,,0.00,WUHU216DAVISVP2,2013-02-09 17:10:00,
2013-02-09 12:15:00,30.1,25.0,30.44,SE,131,3.0,11.0,81,0.00,,,0.00,WUHU216DAVISVP2,2013-02-09 17:15:00,
2013-02-09 12:20:00,30.3,25.2,30.44,SE,134,5.0,11.0,81,0.00,,,0.00,WUHU216DAVISVP2,2013-02-09 17:20:00,
2013-02-09 12:25:00,30.3,24.9,30.44,ESE,107,6.0,12.0,80,0.00,,,0.00,WUHU216DAVISVP2,2013-02-09 17:25:00,
2013-02-09 12:30:00,30.6,25.5,30.43,ESE,108,13.0,13.0,81,0.00,,,0.00,WUHU216DAVISVP2,2013-02-09 17:30:00,
2013-02-09 12:35:00,30.8,25.4,30.43,South,181,5.0,13.0,80,0.00,,,0.00,WUHU216DAVISVP2,2013-02-09 17:35:00,
2013-02-09 12:40:00,31.1,26.0,30.43,SE,145,9.0,13.0,81,0.00,,,0.00,WUHU216DAVISVP2,2013-02-09 17:40:00,
2013-02-09 12:45:00,31.1,25.7,30.42,SE,134,7.0,12.0,80,0.00,,,0.00,WUHU216DAVISVP2,2013-02-09 17:45:00,
2013-02-09 12:50:00,31.3,25.6,30.42,SE,134,10.0,12.0,79,0.00,,,0.00,WUHU216DAVISVP2,2013-02-09 17:50:00,
2013-02-09 12:55:00,31.4,26.0,30.42,SE,124,10.0,12.0,80,0.00,,,0.00,WUHU216DAVISVP2,2013-02-09 17:55:00,
2013-02-09 13:00:00,31.6,26.1,30.42,ESE,115,7.0,12.0,80,0.00,,,0.00,WUHU216DAVISVP2,2013-02-09 18:00:00,
2013-02-09 13:05:00,31.6,25.8,30.41,SSE,166,9.0,12.0,79,0.00,,,0.00,WUHU216DAVISVP2,2013-02-09 18:05:00,
2013-02-09 13:10:00,32.0,26.2,30.41,SE,133,7.0,12.0,79,0.00,,,0.00,WUHU216DAVISVP2,2013-02-09 18:10:00,
2013-02-09 13:15:00,32.3,26.2,30.41,SSE,151,6.0,12.0,78,0.00,,,0.00,WUHU216DAVISVP2,2013-02-09 18:15:00,
2013-02-09 13:20:00,32.3,26.5,30.41,East,96,7.0,12.0,79,0.00,,,0.00,WUHU216DAVISVP2,2013-02-09 18:20:00,
2013-02-09 13:25:00,32.7,27.5,30.41,SSE,158,3.0,12.0,81,0.00,,,0.00,WUHU216DAVISVP2,2013-02-09 18:25:00,
2013-02-09 13:30:00,32.9,27.1,30.41,SE,133,7.0,12.0,79,0.00,,,0.00,WUHU216DAVISVP2,2013-02-09 18:30:00,
2013-02-09 13:35:00,32.8,26.4,30.40,SE,127,9.0,14.0,77,0.00,,,0.00,WUHU216DAVISVP2,2013-02-09 18:35:00,
2013-02-09 13:40:00,32.8,26.7,30.40,SE,125,8.0,16.0,78,0.00,,,0.00,WUHU216DAVISVP2,2013-02-09 18:40:00,
2013-02-09 13:45:00,32.8,26.4,30.39,SE,139,4.0,16.0,77,0.00,,,0.00,WUHU216DAVISVP2,2013-02-09 18:45:00,
2013-02-09 13:50:00,33.0,26.9,30.39,SE,135,5.0,16.0,78,0.00,,,0.00,WUHU216DAVISVP2,2013-02-09 18:50:00,
2013-02-09 13:55:00,33.0,26.6,30.38,SE,139,7.0,16.0,77,0.00,,,0.00,WUHU216DAVISVP2,2013-02-09 18:55:00,
2013-02-09 14:00:00,33.2,26.8,30.38,SE,128,8.0,14.0,77,0.00,,,0.00,WUHU216DAVISVP2,2013-02-09 19:00:00,
2013-02-09 14:05:00,33.2,26.8,30.38,SE,131,9.0,15.0,77,0.00,,,0.00,WUHU216DAVISVP2,2013-02-09 19:05:00,
2013-02-09 14:10:00,33.1,26.4,30.38,SE,143,7.0,15.0,76,0.00,,,0.00,WUHU216DAVISVP2,2013-02-09 19:10:00,
2013-02-09 14:15:00,33.1,26.7,30.37,ESE,110,9.0,14.0,77,0.00,,,0.00,WUHU216DAVISVP2,2013-02-09 19:15:00,
2013-02-09 14:20:00,33.1,26.7,30.37,ESE,115,9.0,14.0,77,0.00,,,0.00,WUHU216DAVISVP2,2013-02-09 19:20:00,
2013-02-09 14:25:00,33.4,27.0,30.37,SE,134,8.0,13.0,77,0.00,,,0.00,WUHU216DAVISVP2,2013-02-09 19:25:00,
2013-02-09 14:30:00,33.6,26.9,30.36,ESE,120,9.0,13.0,76,0.00,,,0.00,WUHU216DAVISVP2,2013-02-09 19:30:00,
2013-02-09 14:35:00,33.6,26.6,30.36,SE,145,11.0,14.0,75,0.00,,,0.00,WUHU216DAVISVP2,2013-02-09 19:35:00,
2013-02-09 14:40:00,33.7,26.7,30.36,SSE,155,10.0,16.0,75,0.00,,,0.00,WUHU216DAVISVP2,2013-02-09 19:40:00,
2013-02-09 14:45:00,33.8,27.1,30.36,SE,146,7.0,16.0,76,0.00,,,0.00,WUHU216DAVISVP2,2013-02-09 19:45:00,
2013-02-09 14:50:00,34.1,27.0,30.36,ESE,117,9.0,16.0,75,0.00,,,0.00,WUHU216DAVISVP2,2013-02-09 19:50:00,
2013-02-09 14:55:00,34.1,27.0,30.35,SE,137,9.0,16.0,75,0.00,,,0.00,WUHU216DAVISVP2,2013-02-09 19:55:00,
2013-02-09 15:00:00,34.2,26.8,30.35,SE,129,10.0,16.0,74,0.00,,,0.00,WUHU216DAVISVP2,2013-02-09 20:00:00,
2013-02-09 15:05:00,34.3,27.2,30.35,SE,127,14.0,16.0,75,0.00,,,0.00,WUHU216DAVISVP2,2013-02-09 20:05:00,
2013-02-09 15:10:00,34.5,27.4,30.34,SE,138,10.0,15.0,75,0.00,,,0.00,WUHU216DAVISVP2,2013-02-09 20:10:00,
2013-02-09 15:15:00,34.6,27.2,30.34,SE,139,8.0,15.0,74,0.00,,,0.00,WUHU216DAVISVP2,2013-02-09 20:15:00,
2013-02-09 15:20:00,34.6,26.9,30.34,ESE,122,6.0,17.0,73,0.00,,,0.00,WUHU216DAVISVP2,2013-02-09 20:20:00,
2013-02-09 15:25:00,34.8,27.1,30.34,SE,133,6.0,17.0,73,0.00,,,0.00,WUHU216DAVISVP2,2013-02-09 20:25:00,
2013-02-09 15:30:00,34.9,27.8,30.34,SE,131,6.0,17.0,75,0.00,,,0.00,WUHU216DAVISVP2,2013-02-09 20:30:00,
2013-02-09 15:35:00,35.2,27.8,30.34,SE,138,5.0,17.0,74,0.00,,,0.00,WUHU216DAVISVP2,2013-02-09 20:35:00,
2013-02-09 15:40:00,35.2,27.8,30.34,SE,130,7.0,16.0,74,0.00,,,0.00,WUHU216DAVISVP2,2013-02-09 20:40:00,
2013-02-09 15:46:00,35.3,27.6,30.34,SE,128,7.0,16.0,73,0.00,,,0.00,WUHU216DAVISVP2,2013-02-09 20:46:00,
2013-02-09 15:51:00,35.3,27.9,30.34,SE,145,9.0,16.0,74,0.00,,,0.00,WUHU216DAVISVP2,2013-02-09 20:51:00,
2013-02-09 15:56:00,35.5,27.4,30.34,ESE,119,10.0,17.0,72,0.00,,,0.00,WUHU216DAVISVP2,2013-02-09 20:56:00,
2013-02-09 16:01:00,35.5,27.4,30.34,East,89,8.0,17.0,72,0.00,,,0.00,WUHU216DAVISVP2,2013-02-09 21:01:00,
2013-02-09 16:05:00,35.5,27.8,30.34,SE,131,9.0,17.0,73,0.00,,,0.00,WUHU216DAVISVP2,2013-02-09 21:05:00,
2013-02-09 16:10:00,35.3,27.2,30.34,ESE,120,11.0,17.0,72,0.00,,,0.00,WUHU216DAVISVP2,2013-02-09 21:10:00,
2013-02-09 16:16:00,35.2,27.1,30.34,ESE,123,9.0,14.0,72,0.00,,,0.00,WUHU216DAVISVP2,2013-02-09 21:16:00,
2013-02-09 16:21:00,35.2,27.5,30.34,SE,141,8.0,14.0,73,0.00,,,0.00,WUHU216DAVISVP2,2013-02-09 21:21:00,
2013-02-09 16:26:00,35.2,27.1,30.34,SE,138,11.0,14.0,72,0.00,,,0.00,WUHU216DAVISVP2,2013-02-09 21:26:00,
2013-02-09 16:31:00,35.2,27.1,30.34,SE,134,9.0,14.0,72,0.00,,,0.00,WUHU216DAVISVP2,2013-02-09 21:31:00,
2013-02-09 16:36:00,35.3,27.2,30.34,SE,140,9.0,13.0,72,0.00,,,0.00,WUHU216DAVISVP2,2013-02-09 21:36:00,
2013-02-09 16:41:00,35.3,27.6,30.34,SE,145,9.0,13.0,73,0.00,,,0.00,WUHU216DAVISVP2,2013-02-09 21:41:00,
2013-02-09 16:46:00,35.3,27.6,30.34,SSE,148,6.0,13.0,73,0.00,,,0.00,WUHU216DAVISVP2,2013-02-09 21:46:00,
2013-02-09 16:51:00,35.2,27.5,30.34,SE,133,8.0,13.0,73,0.00,,,0.00,WUHU216DAVISVP2,2013-02-09 21:51:00,
2013-02-09 16:56:00,35.0,27.3,30.34,SE,133,5.0,12.0,73,0.00,,,0.00,WUHU216DAVISVP2,2013-02-09 21:56:00,
2013-02-09 17:01:00,34.8,27.4,30.33,ESE,106,7.0,12.0,74,0.00,,,0.00,WUHU216DAVISVP2,2013-02-09 22:01:00,
2013-02-09 17:06:00,34.6,27.5,30.33,SE,127,3.0,12.0,75,0.00,,,0.00,WUHU216DAVISVP2,2013-02-09 22:06:00,
2013-02-09 17:11:00,34.4,27.3,30.33,ESE,112,8.0,9.0,75,0.00,,,0.00,WUHU216DAVISVP2,2013-02-09 22:11:00,
2013-02-09 17:16:00,34.2,27.1,30.33,SE,124,3.0,11.0,75,0.00,,,0.00,WUHU216DAVISVP2,2013-02-09 22:16:00,
2013-02-09 17:21:00,34.1,27.4,30.33,ESE,115,7.0,11.0,76,0.00,,,0.00,WUHU216DAVISVP2,2013-02-09 22:21:00,
2013-02-09 17:26:00,34.0,27.3,30.33,East,91,5.0,10.0,76,0.00,,,0.00,WUHU216DAVISVP2,2013-02-09 22:26:00,
2013-02-09 17:31:00,33.8,27.4,30.33,ESE,120,4.0,9.0,77,0.00,,,0.00,WUHU216DAVISVP2,2013-02-09 22:31:00,
2013-02-09 17:36:00,33.8,27.4,30.32,East,96,4.0,9.0,77,0.00,,,0.00,WUHU216DAVISVP2,2013-02-09 22:36:00,
2013-02-09 17:41:00,33.8,27.4,30.32,ESE,110,4.0,8.0,77,0.00,,,0.00,WUHU216DAVISVP2,2013-02-09 22:41:00,
2013-02-09 17:46:00,33.8,27.4,30.32,ESE,106,4.0,9.0,77,0.00,,,0.00,WUHU216DAVISVP2,2013-02-09 22:46:00,
2013-02-09 17:51:00,33.6,27.5,30.32,East,99,7.0,10.0,78,0.00,,,0.00,WUHU216DAVISVP2,2013-02-09 22:51:00,
2013-02-09 17:56:00,33.4,27.3,30.31,East,100,8.0,10.0,78,0.00,,,0.00,WUHU216DAVISVP2,2013-02-09 22:56:00,
2013-02-09 18:01:00,33.2,27.4,30.31,ESE,105,12.0,12.0,79,0.00,,,0.00,WUHU216DAVISVP2,2013-02-09 23:01:00,
2013-02-09 18:06:00,33.0,27.2,30.31,ESE,106,5.0,12.0,79,0.00,,,0.00,WUHU216DAVISVP2,2013-02-09 23:06:00,
2013-02-09 18:11:00,32.7,27.2,30.31,East,95,5.0,11.0,80,0.00,,,0.00,WUHU216DAVISVP2,2013-02-09 23:11:00,
2013-02-09 18:16:00,32.4,27.2,30.30,East,85,7.0,11.0,81,0.00,,,0.00,WUHU216DAVISVP2,2013-02-09 23:16:00,
2013-02-09 18:21:00,32.2,27.0,30.30,East,96,6.0,10.0,81,0.00,,,0.00,WUHU216DAVISVP2,2013-02-09 23:21:00,
2013-02-09 18:26:00,32.0,27.1,30.30,ESE,105,6.0,9.0,82,0.00,,,0.00,WUHU216DAVISVP2,2013-02-09 23:26:00,
2013-02-09 18:31:00,31.9,27.0,30.30,ESE,106,5.0,10.0,82,0.00,,,0.00,WUHU216DAVISVP2,2013-02-09 23:31:00,
2013-02-09 18:36:00,31.7,26.8,30.30,East,95,6.0,10.0,82,0.00,,,0.00,WUHU216DAVISVP2,2013-02-09 23:36:00,
2013-02-09 18:41:00,31.6,26.7,30.30,ESE,103,8.0,9.0,82,0.00,,,0.00,WUHU216DAVISVP2,2013-02-09 23:41:00,
2013-02-09 18:46:00,31.5,26.9,30.30,ESE,110,5.0,9.0,83,0.00,,,0.00,WUHU216DAVISVP2,2013-02-09 23:46:00,
2013-02-09 18:51:00,31.4,26.8,30.30,ESE,105,5.0,9.0,83,0.00,,,0.00,WUHU216DAVISVP2,2013-02-09 23:51:00,
2013-02-09 18:56:00,31.2,26.6,30.30,ESE,116,6.0,9.0,83,0.00,,,0.00,WUHU216DAVISVP2,2013-02-09 23:56:00,
2013-02-09 19:01:00,31.2,26.9,30.30,ESE,102,8.0,9.0,84,0.00,,,0.00,WUHU216DAVISVP2,2013-02-10 00:01:00,
2013-02-09 19:06:00,31.2,26.6,30.30,East,100,7.0,9.0,83,0.00,,,0.00,WUHU216DAVISVP2,2013-02-10 00:06:00,
2013-02-09 19:11:00,31.2,26.6,30.30,ESE,115,7.0,9.0,83,0.00,,,0.00,WUHU216DAVISVP2,2013-02-10 00:11:00,
2013-02-09 19:16:00,31.0,26.7,30.30,East,92,5.0,11.0,84,0.00,,,0.00,WUHU216DAVISVP2,2013-02-10 00:16:00,
2013-02-09 19:21:00,31.0,26.7,30.30,East,99,5.0,11.0,84,0.00,,,0.00,WUHU216DAVISVP2,2013-02-10 00:21:00,
2013-02-09 19:26:00,31.0,26.7,30.30,East,98,8.0,11.0,84,0.00,,,0.00,WUHU216DAVISVP2,2013-02-10 00:26:00,
2013-02-09 19:31:00,31.0,26.7,30.30,ESE,110,5.0,10.0,84,0.00,,,0.00,WUHU216DAVISVP2,2013-02-10 00:31:00,
2013-02-09 19:36:00,30.9,26.9,30.29,East,99,8.0,10.0,85,0.00,,,0.00,WUHU216DAVISVP2,2013-02-10 00:36:00,
2013-02-09 19:41:00,30.9,26.9,30.29,ESE,108,6.0,10.0,85,0.00,,,0.00,WUHU216DAVISVP2,2013-02-10 00:41:00,
2013-02-09 19:46:00,31.0,27.0,30.30,ESE,106,5.0,9.0,85,0.00,,,0.00,WUHU216DAVISVP2,2013-02-10 00:46:00,
2013-02-09 19:51:00,30.9,26.9,30.30,East,100,5.0,9.0,85,0.00,,,0.00,WUHU216DAVISVP2,2013-02-10 00:51:00,
2013-02-09 19:56:00,30.8,26.8,30.30,ESE,116,3.0,9.0,85,0.00,,,0.00,WUHU216DAVISVP2,2013-02-10 00:56:00,
2013-02-09 20:01:00,30.8,26.8,30.30,East,93,7.0,11.0,85,0.00,,,0.00,WUHU216DAVISVP2,2013-02-10 01:01:00,
2013-02-09 20:06:00,30.8,27.1,30.30,ESE,106,8.0,11.0,86,0.00,,,0.00,WUHU216DAVISVP2,2013-02-10 01:06:00,
2013-02-09 20:11:00,30.9,26.9,30.30,ESE,107,9.0,12.0,85,0.00,,,0.00,WUHU216DAVISVP2,2013-02-10 01:11:00,
2013-02-09 20:16:00,30.9,26.9,30.30,East,101,4.0,12.0,85,0.00,,,0.00,WUHU216DAVISVP2,2013-02-10 01:16:00,
2013-02-09 20:21:00,30.8,26.8,30.30,ESE,109,6.0,11.0,85,0.00,,,0.00,WUHU216DAVISVP2,2013-02-10 01:21:00,
2013-02-09 20:26:00,30.8,26.8,30.29,ESE,102,4.0,10.0,85,0.00,,,0.00,WUHU216DAVISVP2,2013-02-10 01:26:00,
2013-02-09 20:31:00,30.6,26.9,30.29,East,96,12.0,12.0,86,0.00,,,0.00,WUHU216DAVISVP2,2013-02-10 01:31:00,
2013-02-09 20:36:00,30.5,26.8,30.29,ESE,110,8.0,12.0,86,0.00,,,0.00,WUHU216DAVISVP2,2013-02-10 01:36:00,
2013-02-09 20:41:00,30.5,26.8,30.28,ESE,116,9.0,12.0,86,0.00,,,0.00,WUHU216DAVISVP2,2013-02-10 01:41:00,
2013-02-09 20:46:00,30.4,26.7,30.28,ESE,105,7.0,12.0,86,0.00,,,0.00,WUHU216DAVISVP2,2013-02-10 01:46:00,
2013-02-09 20:51:00,30.3,26.9,30.28,ESE,108,7.0,11.0,87,0.00,,,0.00,WUHU216DAVISVP2,2013-02-10 01:51:00,
2013-02-09 20:56:00,30.2,26.8,30.28,ESE,103,11.0,12.0,87,0.00,,,0.00,WUHU216DAVISVP2,2013-02-10 01:56:00,
2013-02-09 21:01:00,30.2,26.8,30.28,ESE,105,7.0,12.0,87,0.00,,,0.00,WUHU216DAVISVP2,2013-02-10 02:01:00,
2013-02-09 21:06:00,30.2,26.8,30.28,ESE,109,6.0,12.0,87,0.00,,,0.00,WUHU216DAVISVP2,2013-02-10 02:06:00,
2013-02-09 21:11:00,30.2,26.8,30.28,ESE,102,3.0,12.0,87,0.00,,,0.00,WUHU216DAVISVP2,2013-02-10 02:11:00,
2013-02-09 21:16:00,30.2,26.5,30.28,East,98,7.0,11.0,86,0.00,,,0.00,WUHU216DAVISVP2,2013-02-10 02:16:00,
2013-02-09 21:21:00,30.2,26.5,30.28,East,89,6.0,11.0,86,0.00,,,0.00,WUHU216DAVISVP2,2013-02-10 02:21:00,
2013-02-09 21:26:00,30.2,26.5,30.28,ESE,111,7.0,10.0,86,0.00,,,0.00,WUHU216DAVISVP2,2013-02-10 02:26:00,
2013-02-09 21:31:00,30.2,26.5,30.28,ESE,102,6.0,10.0,86,0.00,,,0.00,WUHU216DAVISVP2,2013-02-10 02:31:00,
2013-02-09 21:36:00,30.2,26.5,30.28,ESE,107,5.0,10.0,86,0.00,,,0.00,WUHU216DAVISVP2,2013-02-10 02:36:00,
2013-02-09 21:41:00,30.2,26.5,30.28,East,101,3.0,8.0,86,0.00,,,0.00,WUHU216DAVISVP2,2013-02-10 02:41:00,
2013-02-09 21:46:00,30.1,26.4,30.28,East,101,5.0,9.0,86,0.00,,,0.00,WUHU216DAVISVP2,2013-02-10 02:46:00,
2013-02-09 21:51:00,30.3,26.6,30.28,ESE,106,6.0,9.0,86,0.00,,,0.00,WUHU216DAVISVP2,2013-02-10 02:51:00,
2013-02-09 21:56:00,30.4,26.7,30.28,ESE,110,6.0,9.0,86,0.00,,,0.00,WUHU216DAVISVP2,2013-02-10 02:56:00,
2013-02-09 22:01:00,30.5,26.5,30.28,ESE,106,9.0,10.0,85,0.00,,,0.00,WUHU216DAVISVP2,2013-02-10 03:01:00,
2013-02-09 22:06:00,30.6,26.6,30.28,ESE,103,7.0,12.0,85,0.00,,,0.00,WUHU216DAVISVP2,2013-02-10 03:06:00,
2013-02-09 22:11:00,30.7,26.7,30.28,ESE,117,5.0,12.0,85,0.00,,,0.00,WUHU216DAVISVP2,2013-02-10 03:11:00,
2013-02-09 22:16:00,30.7,26.4,30.28,East,93,5.0,10.0,84,0.00,,,0.00,WUHU216DAVISVP2,2013-02-10 03:16:00,
2013-02-09 22:21:00,30.8,26.5,30.27,ESE,106,9.0,13.0,84,0.00,,,0.00,WUHU216DAVISVP2,2013-02-10 03:21:00,
2013-02-09 22:26:00,31.0,26.7,30.27,ESE,110,9.0,13.0,84,0.00,,,0.00,WUHU216DAVISVP2,2013-02-10 03:26:00,
2013-02-09 22:31:00,31.1,26.5,30.26,ESE,114,7.0,13.0,83,0.00,,,0.00,WUHU216DAVISVP2,2013-02-10 03:31:00,
2013-02-09 22:36:00,31.1,26.5,30.26,ESE,110,10.0,13.0,83,0.00,,,0.00,WUHU216DAVISVP2,2013-02-10 03:36:00,
2013-02-09 22:41:00,31.2,26.6,30.26,ESE,121,12.0,15.0,83,0.00,,,0.00,WUHU216DAVISVP2,2013-02-10 03:41:00,
2013-02-09 22:46:00,31.4,26.5,30.25,ESE,119,8.0,15.0,82,0.00,,,0.00,WUHU216DAVISVP2,2013-02-10 03:46:00,
2013-02-09 22:51:00,31.6,26.4,30.25,ESE,123,7.0,15.0,81,0.00,,,0.00,WUHU216DAVISVP2,2013-02-10 03:51:00,
2013-02-09 22:56:00,31.7,26.5,30.25,ESE,106,9.0,15.0,81,0.00,,,0.00,WUHU216DAVISVP2,2013-02-10 03:56:00,
2013-02-09 23:01:00,31.8,26.3,30.25,ESE,112,7.0,15.0,80,0.00,,,0.00,WUHU216DAVISVP2,2013-02-10 04:01:00,
2013-02-09 23:06:00,31.9,26.1,30.25,ESE,116,13.0,14.0,79,0.00,,,0.00,WUHU216DAVISVP2,2013-02-10 04:06:00,
2013-02-09 23:11:00,31.9,26.1,30.25,ESE,123,11.0,15.0,79,0.00,,,0.00,WUHU216DAVISVP2,2013-02-10 04:11:00,
2013-02-09 23:16:00,32.0,26.2,30.24,ESE,119,13.0,15.0,79,0.00,,,0.00,WUHU216DAVISVP2,2013-02-10 04:16:00,
2013-02-09 23:21:00,32.1,26.0,30.24,ESE,108,10.0,16.0,78,0.00,,,0.00,WUHU216DAVISVP2,2013-02-10 04:21:00,
2013-02-09 23:26:00,32.3,25.9,30.24,ESE,115,14.0,18.0,77,0.00,,,0.00,WUHU216DAVISVP2,2013-02-10 04:26:00,
2013-02-09 23:31:00,32.4,25.7,30.24,SE,141,12.0,18.0,76,0.00,,,0.00,WUHU216DAVISVP2,2013-02-10 04:31:00,
2013-02-09 23:36:00,32.5,25.8,30.24,ESE,122,13.0,17.0,76,0.00,,,0.00,WUHU216DAVISVP2,2013-02-10 04:36:00,
2013-02-09 23:41:00,32.4,25.7,30.23,SE,132,10.0,17.0,76,0.00,,,0.00,WUHU216DAVISVP2,2013-02-10 04:41:00,
2013-02-09 23:46:00,32.4,26.0,30.23,ESE,120,7.0,17.0,77,0.00,,,0.00,WUHU216DAVISVP2,2013-02-10 04:46:00,
2013-02-09 23:51:00,32.2,25.8,30.23,ESE,123,10.0,18.0,77,0.00,,,0.00,WUHU216DAVISVP2,2013-02-10 04:51:00,
2013-02-09 23:56:00,32.1,25.7,30.23,ESE,109,14.0,18.0,77,0.00,,,0.00,WUHU216DAVISVP2,2013-02-10 04:56:00,